ATLAS 5 CENTAUR R/B, 40106

Orbit data source: Space-Track

ATLAS 5 CENTAUR R/B, 40106 is space debris in MEO originally from a launch on Sat, 02 Aug 2014 UTC launched from the Air Force Eastern Test Range (AFETR). Debris objects in space refer to the collection of defunct objects orbiting the Earth. Examples of debris include non-operational satellites, rocket bodies, and fragments generated from explosions, collisions, or faulty payload assembly.

Loading next visibility...
Identifier
40106, 2014-045B
Orbit
MEO
Country
Flag of USUS
Related business
Flag of USUnited Launch Alliance/Lockheed Martin (US)
Manufacturer
LMSS Denver
Mission
Spacecraft
Bus & Motor
CENTAUR SEC, RL10-4A-2
Mass
~2,020 kg wet, 2,020 kg dry
Launch date (UTC)
2014-08-02 (11 years ago)
Launch vehicle
Unknown
Launch site
Air Force Eastern Test Range (AFETR)
Object type
Payload
Rocket body
Debris
Shape & HBR
Cyl + 1 Nozzle, 5.8 m
Radar Cross Section
32.260 m², Large (>1 m²)

Expand to show TLE details & history
Last TLE update: 2 days ago

TLE from 2 days ago
0 ATLAS 5 CENTAUR R/B
1 40106U 14045B   25337.11691308  .00000035  00000-0  00000-0 0  9992
2 40106  55.2251 113.7498 0152483  22.1979 338.4196  1.90830594 79019
Epoch: 2025-12-03T02:48Z
TLE epoch observation values (Epoch: 2025-12-03T02:48:21.290Z)
Latitude
-0.00009°
Longitude
-0.55094°
Altitude
20,689.386 km
Speed
3.865 km/s
True Right ascension
07h 34m 55s
True Declination
0° 00' 00"
Sunlit
Object was in daylight at epoch
Visualization orbit readout
Latitude
Unknown
Longitude
Unknown
Altitude
Unknown
Speed
Unknown
Apparent Right ascension
Unknown
Apparent Declination
Unknown
Sunlit
N/A
Visualization observer readout
Local Sidereal Time
07:28:09
Azimuth
Unknown
Elevation
Unknown
Doppler factor
Unknown
Orbital elements
Apogee altitude
21,496.469 km
Perigee altitude
20,659.156 km
Semi-major axis
27,455.949 km
Eccentricity
0.01525
Inclination
55.2251°
RAAN
113.7498°
Arg. of periapsis
22.1979°
True anomaly
337.76535°
Mean anomaly
338.4196°
Eccentric anomaly
338.09364°
Mean motion
0.47708 °/min
Orbital period
754.6 mins
BSTAR
0
Loading maneuver chart data...
Computing Atmospheric mass density...
Loading historical data...
Loading historical data...
Loading historical data...
Loading historical data...
Loading historical data...
Loading historical data...
Loading historical data...
Other satellites on launch #45 in the year 2014 (2014-08-02 UTC)

Documentation

Showing up to 5 results
|